User: anonymous   Login
Location: Mentone
(34.5413°N, 85.5351°W)
Time: 17:52:35
(UTC-06:00)
Language:

Cosmos 2026 Rocket - Orbit

View from above orbital plane
View from above orbital plane
View from above satellite
View from above satellite

Ground track
Ground track

The orbit data is extracted from the following two-line orbital elements,

1 20046U 89042B   18050.58422684 +.00000084 +00000-0 +67158-4 0  9991
2 20046 082.9375 118.8462 0043533 095.0501 265.5628 13.78121223443124
Epoch (UTC): 19 February 2018 14:01:17
Eccentricity: 0.0043533
inclination: 82.9375°
perigee height: 938 km
apogee height: 1002 km
right ascension of ascending node: 118.8462°
argument of perigee: 95.0501°
revolutions per day: 13.78121223
mean anomaly at epoch: 265.5628°
orbit number at epoch: 44312

The dashed part of the orbit path shows where the satellite is in the earth's shadow,  

DLR